SCP
0 0 0 0 0 0 0 0 0 0 0 0 0 0 0 0 0 0 0 0 0 0 0 0 0 0 0 0 0 0 0 0 0 0 0 0 0 0
0 0 0 0 0 0 0 0 0 0 0 0 0 0 0 0 0 0 0 0 0 0 0 0 0 0 0 0 0 0 0 0 0 0 0 0 0 0
0 0 0 0 0 0 0 0 0 0 0 0 0 0 0 0 0 0 0 0 0 0 0 0 0 0 0 0 0 0 0 0 0 0 0 0 0 0
0 0 0 0 0 0 0 0 0 0 0 0 0 0 0 0 0 0 0 0 0 0 0 0 0 0 0 0 0 0 0 0 0 0 0 0 0 0
0 0 0 0 0 0 0 0 0 0 0 0 0 0 0 0 0 0 0 0 0 0 0 0 0 0 0 0 0 0 0 0 0 0 0 0 0 0
0 0 0 0 0 0 0 0 0 0 0 0 0 0 0 0 0 0 0 0 0 0 0 0 0 0 0 0 0 0 0 0 0 0 0 0 0 0
0 0 0 0 0 0 0 0 0 0 0 0 0 0 0 0 0 0 0 0 -0 -0 0 0 0 0 0 0 0 0 0 0 0 0 0 0 0 0
0 0 0 0 0 0 0 0 0 0 0 0 0 0 0 0 0 0 0 0 -0 -0 -0 0 0 0 0 0 0 0 0 0 0 0 0 0 0 0
0 0 0 -0 0 0 0 0 0 0 0 0 0 0 0 0 0 0 0 0 0 -0 -0 -0 0 0 0 0 0 0 0 0 0 0 0 0 0 0
0 0 0 0 0 0 0 0 0 0 0 0 0 0 0 0 0 0 0 0 0 -0 -0 0 0 0 0 0 0 0 0 0 0 0 0 0 0 0
0 0 0 0 0 0 0 0 0 0 0 0 0 0 0 0 0 0 0 0 0 -0 -0 0 0 0 -0 0 0 0 0 0 0 0 0 0 0 0
0 0 0 0 0 0 0 0 0 0 0 0 0 0 0 0 0 0 0 0 0 -0 -0 -0 0 0 -0 0 0 0 0 0 0 0 0 0 0 0
0 0 0 0 0 0 0 0 0 0 0 0 0 0 0 0 0 0 0 0 0 -0 -0 -0 -0 -0 -0 0 0 0 0 0 0 0 0 0 0 0
0 0 0 0 0 0 0 0 0 0 0 0 0 0 0 0 0 0 0 0 0 0 0 0 -0 -0 0 0 0 0 0 0 0 0 0 0 0 0
0 0 0 0 0 0 0 0 0 0 0 0 0 0 0 0 0 0 0 0 0 0 0 0 -0 0 0 0 0 0 0 0 0 0 0 0 0 0
0 0 0 0 0 0 0 0 0 0 0 0 0 0 0 0 0 0 0 0 0 0 0 0 0 0 0 0 0 0 0 0 0 0 0 0 0 0
0 0 0 0 0 0 0 0 0 0 0 0 0 0 0 0 0 0 0 0 0 0 0 0 0 0 0 0 0 0 0 0 0 0 0 0 0 0
0 0 0 0 0 0 0 0 0 0 0 0 0 0 0 0 0 0 0 0 0 0 0 0 0 0 0 0 0 0 0 0 0 0 0 0 0 0
0 0 0 0 0 0 0 0 0 0 0 0 0 0 0 0 0 0 0 0 0 0 0 0 0 0 0 0 0 0 0 0 0 0 0 0 0 0
0 0 0 0 0 0 0 0 0 0 0 0 0 0 0 0 0 0 0 0 0 0 0 0 0 0 0 0 0 0 0 0 0 0 0 0 0 0
0 0 0 0 0 0 0 0 0 0 0 0 0 0 0 0 0 0 0 0 0 0 0 0 0 0 0 0 0 0 0 0 0 0 0 0 0 0
0 0 0 0 0 0 0 0 0 0 0 0 0 0 0 0 0 0 0 0 0 0 0 0 0 0 0 0 0 0 0 0 0 0 0 0 0 0
0 0 0 0 0 0 0 0 0 0 0 0 0 0 0 0 0 0 0 0 0 0 0 0 0 0 0 0 0 0 0 0 0 0 0 0 0 0
Wind_Speed
9 9 8 7 7 6 6 6 6 7 7 4 3 4 4 4 6 6 6 10 10 9 8 8 7 7 8 9 8 8 7 6 6 6 6 6 7 8
7 9 9 7 7 6 6 7 6 7 8 4 4 3 4 4 7 6 6 9 10 10 9 8 7 7 8 8 8 8 7 7 7 7 6 6 6 7
9 10 11 9 7 7 6 6 6 6 8 5 3 2 3 4 4 3 4 4 5 9 9 8 7 7 8 7 8 8 8 7 7 6 6 5 5 5
11 11 11 9 9 8 7 8 7 7 6 6 4 2 3 4 3 3 2 2 3 7 7 7 7 7 8 8 8 7 6 6 6 5 5 5 5 5
11 11 11 10 10 8 8 8 7 6 5 4 4 2 2 2 2 1 2 2 2 4 6 6 7 7 7 8 8 7 6 6 6 5 5 5 5 5
10 11 11 11 10 9 8 8 6 6 5 4 3 2 2 2 2 2 1 1 1 1 2 3 5 5 6 7 7 6 6 6 5 5 5 4 3 4
10 10 11 11 13 11 9 7 7 6 5 4 3 2 2 3 3 2 2 1 0 1 2 1 2 2 3 4 5 6 6 6 5 5 4 3 2 3
10 10 9 10 12 15 15 12 10 8 7 5 4 5 5 4 3 3 3 2 1 1 2 0 1 2 2 2 4 5 6 6 5 4 3 2 1 2
9 8 7 8 10 8 9 10 10 11 11 8 7 7 6 6 6 4 3 2 1 2 2 0 0 1 1 2 5 6 6 5 5 4 2 1 1 2
9 9 8 8 7 7 6 5 5 5 7 6 6 6 5 6 6 5 4 3 2 0 1 1 1 1 1 1 4 5 5 4 4 3 2 1 1 2
8 8 8 8 9 8 6 5 4 2 2 4 5 5 6 7 6 5 5 4 2 1 1 2 2 2 1 1 1 3 3 3 3 2 2 1 0 1
5 5 9 9 9 8 6 6 5 4 3 3 3 4 4 6 6 6 6 5 3 2 2 3 3 3 1 1 1 1 1 2 2 2 1 1 1 1
3 3 4 8 8 7 5 5 6 5 4 4 3 2 2 2 2 2 3 4 4 2 4 3 3 2 3 1 1 1 1 1 1 1 1 2 2 2
2 2 3 6 6 5 4 6 7 5 4 4 3 2 2 2 2 3 3 2 2 2 4 4 3 4 4 3 1 1 1 1 1 1 1 2 2 3
1 3 4 5 5 4 5 6 4 4 4 4 3 2 2 3 4 4 4 5 5 4 3 3 4 4 3 3 3 2 1 1 1 1 1 1 1 1
2 4 5 5 4 4 4 3 3 3 4 4 3 3 3 3 3 3 4 4 5 5 5 5 4 5 4 4 4 3 2 1 0 1 1 1 1 1
2 2 3 3 3 3 2 2 3 3 3 3 4 3 3 3 3 3 3 3 4 4 4 4 5 6 5 4 3 3 2 1 1 1 1 1 2 2
2 3 3 3 3 3 3 3 3 3 3 3 4 4 4 4 4 4 4 4 5 5 4 4 4 4 4 5 4 3 2 1 1 1 1 1 2 2
2 3 2 3 3 3 3 3 3 3 3 4 4 4 4 5 5 5 4 5 5 5 4 3 3 4 5 3 3 3 2 2 2 2 1 1 0 2
2 3 2 2 3 3 3 3 3 3 3 4 4 4 5 5 5 5 4 5 5 5 4 3 2 2 4 4 3 2 3 2 2 1 1 1 1 2
2 2 2 2 3 3 3 3 4 3 4 4 4 4 5 5 5 5 5 8 6 5 5 3 2 4 4 4 5 3 3 3 2 2 1 1 1 2
2 2 2 2 2 3 3 4 4 4 4 4 4 4 4 5 5 6 6 6 5 5 5 4 3 3 3 5 5 3 3 3 5 5 4 1 1 0
2 2 2 2 2 2 3 4 4 4 4 4 4 4 5 5 5 5 6 5 6 6 6 5 4 4 4 5 5 4 4 3 3 4 4 6 5 4
Wind_Direction
244 245 245 244 239 239 239 236 242 262 266 247 243 229 223 221 222 219 214 219 219 211 208 205 208 207 207 214 217 220 217 213 218 229 239 251 268 278
246 247 247 246 242 238 238 239 236 242 260 247 241 244 228 236 229 223 217 215 210 206 201 200 199 204 202 205 209 209 203 207 217 228 238 251 266 278
250 247 248 244 240 241 238 238 241 235 249 264 247 232 223 227 226 220 208 200 195 199 202 198 194 199 196 201 205 200 201 205 214 226 236 245 258 272
253 250 250 246 240 240 237 238 240 232 227 251 255 230 227 219 211 212 211 199 188 190 192 190 189 198 194 195 194 195 196 202 212 224 233 238 251 267
251 250 248 242 242 239 237 239 240 234 216 222 241 227 221 205 187 214 182 168 186 181 179 183 186 193 191 191 189 189 191 201 208 216 223 234 249 263
251 251 247 238 238 236 239 236 235 229 215 210 222 211 210 197 182 182 167 144 160 158 173 175 177 184 182 183 188 189 189 196 207 211 213 225 242 261
256 252 244 239 240 239 241 231 221 220 208 205 208 209 205 193 197 173 168 132 51 164 143 159 158 161 170 175 182 187 189 198 208 206 196 202 232 269
258 254 243 237 243 244 247 240 225 216 205 202 208 202 207 198 177 164 159 162 219 160 130 60 131 161 169 177 183 182 183 184 180 179 180 189 231 278
253 249 247 243 242 236 239 239 235 230 217 207 204 206 200 192 175 175 180 176 199 177 132 219 209 167 165 171 171 177 178 175 171 172 177 185 248 295
249 240 235 236 227 222 214 218 222 220 216 209 204 203 197 184 180 176 159 117 83 81 157 184 187 142 105 123 166 166 169 170 167 168 169 171 290 321
249 234 224 223 225 221 200 197 196 209 191 177 183 183 177 175 169 144 145 144 159 226 195 152 144 109 87 83 141 160 161 157 156 156 153 146 351 352
248 230 224 221 219 212 192 179 181 186 161 134 124 124 140 156 171 173 166 164 160 185 190 145 139 128 116 42 59 77 107 127 125 114 88 34 6 28
242 223 212 209 208 201 194 180 181 171 149 137 127 118 115 129 141 141 155 169 171 187 178 146 138 134 137 138 27 39 84 87 67 64 42 12 1 9
236 201 174 171 174 179 179 163 159 152 137 134 131 135 137 137 124 109 98 92 100 155 164 149 144 153 141 135 142 54 40 67 78 59 19 4 360 350
182 156 148 147 146 146 144 144 144 139 137 139 143 146 137 134 119 102 87 89 79 73 84 109 129 131 127 139 139 129 88 31 58 63 27 4 341 346
111 121 120 118 113 109 121 123 124 144 148 146 142 137 127 123 123 122 118 111 96 74 56 65 92 117 116 115 127 130 129 144 94 57 43 0 346 346
132 114 116 123 121 116 117 119 122 131 131 135 136 134 133 133 128 121 121 114 112 114 91 68 69 74 80 109 116 119 114 99 115 79 61 19 346 347
127 120 127 134 139 142 141 134 130 136 142 139 140 142 146 139 126 116 115 117 119 118 115 115 110 92 74 51 52 119 104 101 84 69 71 66 4 350
113 116 125 136 141 142 143 142 142 143 142 141 143 144 139 133 129 128 124 119 117 118 118 122 123 123 116 101 27 33 121 111 84 61 41 56 0 325
107 126 132 134 136 142 146 144 141 139 140 141 139 138 136 133 132 131 129 129 127 121 114 102 100 122 128 133 126 48 50 109 105 83 43 26 2 339
109 116 124 131 133 136 142 143 143 143 142 139 135 136 137 135 132 130 128 128 123 124 126 122 108 104 102 95 93 71 35 43 85 124 112 59 32 21
110 115 119 128 128 134 137 141 139 138 137 136 135 137 135 132 133 133 131 130 126 122 116 110 103 93 87 102 108 101 68 40 47 54 53 83 124 89
109 116 117 122 127 130 135 137 139 139 139 138 136 135 131 128 128 127 125 124 124 123 120 114 96 80 84 101 107 101 87 67 51 50 36 30 49 54